Time,TemperatureF,DewpointF,PressureIn,WindDirection,WindDirectionDegrees,WindSpeedMPH,WindSpeedGustMPH,Humidity,HourlyPrecipIn,Conditions,Clouds,dailyrainin,SolarRadiationWatts/m^2,SoftwareType,DateUTC
2013-02-19 00:04:00,31.8,28.9,28.91,NNE,25,2.3,2.3,89,0.00,CLR,FEW,0.00,0.0,WeatherDisplay:10.37,2013-02-18 23:04:00,
2013-02-19 00:09:00,32.0,29.1,28.88,North,0,1.1,1.1,89,0.00,CLR,FEW,0.00,0.0,WeatherDisplay:10.37,2013-02-18 23:09:00,
2013-02-19 00:14:00,32.0,29.1,28.88,North,355,2.3,2.3,89,0.00,CLR,FEW,0.00,0.0,WeatherDisplay:10.37,2013-02-18 23:14:00,
2013-02-19 00:19:00,32.0,29.1,28.88,North,355,2.3,2.3,89,0.00,CLR,FEW,0.00,0.0,WeatherDisplay:10.37,2013-02-18 23:19:00,
2013-02-19 00:24:00,32.0,28.8,28.91,NE,35,1.1,1.5,88,0.00,CLR,FEW,0.00,0.0,WeatherDisplay:10.37,2013-02-18 23:24:00,
2013-02-19 00:29:00,32.2,28.7,28.91,NE,40,2.3,2.3,87,0.00,CLR,FEW,0.00,0.0,WeatherDisplay:10.37,2013-02-18 23:29:00,
2013-02-19 00:34:00,32.2,28.5,28.91,NNE,20,4.6,4.6,86,0.00,CLR,FEW,0.00,0.0,WeatherDisplay:10.37,2013-02-18 23:34:00,
2013-02-19 00:39:00,32.2,28.7,28.88,NNE,15,2.3,2.4,87,0.00,CLR,FEW,0.00,0.0,WeatherDisplay:10.37,2013-02-18 23:39:00,
2013-02-19 00:44:00,32.2,28.5,28.88,North,5,2.3,2.3,86,0.00,CLR,FEW,0.00,0.0,WeatherDisplay:10.37,2013-02-18 23:44:00,
2013-02-19 00:49:00,32.2,28.5,28.88,North,5,2.3,2.3,86,0.00,CLR,FEW,0.00,0.0,WeatherDisplay:10.37,2013-02-18 23:49:00,
2013-02-19 00:54:00,32.0,28.3,28.88,North,350,3.5,3.5,86,0.00,CLR,FEW,0.00,0.0,WeatherDisplay:10.37,2013-02-18 23:54:00,
2013-02-19 00:59:00,32.0,28.3,28.88,NNW,335,1.1,1.1,86,0.00,CLR,FEW,0.00,0.0,WeatherDisplay:10.37,2013-02-18 23:59:00,
2013-02-19 01:04:00,32.0,28.3,28.88,NNW,345,0.0,0.0,86,0.00,CLR,FEW,0.00,0.0,WeatherDisplay:10.37,2013-02-19 00:04:00,
2013-02-19 01:09:00,32.0,28.0,28.88,NNW,330,2.3,2.3,85,0.00,CLR,FEW,0.00,0.0,WeatherDisplay:10.37,2013-02-19 00:09:00,
2013-02-19 01:14:00,32.0,28.0,28.88,North,355,3.5,3.5,85,0.00,CLR,FEW,0.00,0.0,WeatherDisplay:10.37,2013-02-19 00:14:00,
2013-02-19 01:19:00,32.0,28.0,28.88,North,355,3.5,3.5,85,0.00,CLR,FEW,0.00,0.0,WeatherDisplay:10.37,2013-02-19 00:19:00,
2013-02-19 01:24:00,32.0,28.0,28.88,NNE,15,2.3,2.3,85,0.00,CLR,FEW,0.00,0.0,WeatherDisplay:10.37,2013-02-19 00:24:00,
2013-02-19 01:29:00,32.0,27.7,28.88,NNW,330,2.3,2.4,84,0.00,CLR,FEW,0.00,0.0,WeatherDisplay:10.37,2013-02-19 00:29:00,
2013-02-19 01:34:00,32.0,27.7,28.88,NNW,335,2.3,2.4,84,0.00,CLR,FEW,0.00,0.0,WeatherDisplay:10.37,2013-02-19 00:34:00,
2013-02-19 01:39:00,32.0,27.7,28.85,NW,320,0.0,0.0,84,0.00,CLR,FEW,0.00,0.0,WeatherDisplay:10.37,2013-02-19 00:39:00,
2013-02-19 01:44:00,32.0,27.4,28.85,North,0,1.1,1.1,83,0.00,CLR,FEW,0.00,0.0,WeatherDisplay:10.37,2013-02-19 00:44:00,
2013-02-19 01:49:00,32.0,27.4,28.85,North,0,1.1,1.1,83,0.00,CLR,FEW,0.00,0.0,WeatherDisplay:10.37,2013-02-19 00:49:00,
2013-02-19 01:54:00,32.0,27.4,28.85,NE,40,0.0,0.4,83,0.00,CLR,FEW,0.00,0.0,WeatherDisplay:10.37,2013-02-19 00:54:00,
2013-02-19 01:59:00,32.0,27.4,28.85,North,0,0.0,0.0,83,0.00,CLR,FEW,0.00,0.0,WeatherDisplay:10.37,2013-02-19 00:59:00,
2013-02-19 02:04:00,32.0,27.4,28.85,NNW,340,0.0,0.6,83,0.00,CLR,FEW,0.00,0.0,WeatherDisplay:10.37,2013-02-19 01:04:00,
2013-02-19 02:09:00,32.0,27.1,28.85,NNE,15,3.5,3.5,82,0.00,CLR,FEW,0.00,0.0,WeatherDisplay:10.37,2013-02-19 01:09:00,
2013-02-19 02:15:00,32.0,27.1,28.85,NNE,15,3.5,3.5,82,0.00,CLR,FEW,0.00,0.0,WeatherDisplay:10.37,2013-02-19 01:15:00,
2013-02-19 02:20:00,32.2,27.0,28.85,NNW,345,2.3,2.3,81,0.00,CLR,FEW,0.00,0.0,WeatherDisplay:10.37,2013-02-19 01:20:00,
2013-02-19 02:25:00,32.2,27.0,28.85,NNW,345,2.3,2.3,81,0.00,CLR,FEW,0.00,0.0,WeatherDisplay:10.37,2013-02-19 01:25:00,
2013-02-19 02:30:00,32.0,26.8,28.85,NNE,25,2.3,2.6,81,0.00,CLR,FEW,0.00,0.0,WeatherDisplay:10.37,2013-02-19 01:30:00,
2013-02-19 02:35:00,32.0,26.8,28.85,North,355,3.5,3.5,81,0.00,CLR,FEW,0.00,0.0,WeatherDisplay:10.37,2013-02-19 01:35:00,
2013-02-19 02:40:00,32.0,26.8,28.82,NNW,335,1.1,1.1,81,0.00,CLR,FEW,0.00,0.0,WeatherDisplay:10.37,2013-02-19 01:40:00,
2013-02-19 02:45:00,32.0,26.8,28.82,NNW,340,1.1,1.1,81,0.00,CLR,FEW,0.00,0.0,WeatherDisplay:10.37,2013-02-19 01:45:00,
2013-02-19 02:50:00,32.2,27.0,28.82,North,0,5.8,5.8,81,0.00,CLR,FEW,0.00,0.0,WeatherDisplay:10.37,2013-02-19 01:50:00,
2013-02-19 02:55:00,32.2,27.0,28.82,North,0,5.8,5.8,81,0.00,CLR,FEW,0.00,0.0,WeatherDisplay:10.37,2013-02-19 01:55:00,
2013-02-19 03:00:00,32.2,26.7,28.82,NW,320,1.1,1.5,80,0.00,CLR,FEW,0.00,0.0,WeatherDisplay:10.37,2013-02-19 02:00:00,
2013-02-19 03:05:00,32.4,26.9,28.82,NNW,345,5.8,5.8,80,0.00,CLR,FEW,0.00,0.0,WeatherDisplay:10.37,2013-02-19 02:05:00,
2013-02-19 03:10:00,32.2,26.7,28.82,NNW,330,5.8,5.8,80,0.00,CLR,FEW,0.00,0.0,WeatherDisplay:10.37,2013-02-19 02:10:00,
2013-02-19 03:15:00,32.2,26.7,28.82,NW,310,3.5,3.8,80,0.00,CLR,FEW,0.00,0.0,WeatherDisplay:10.37,2013-02-19 02:15:00,
2013-02-19 03:20:00,32.4,26.9,28.82,North,10,4.6,4.6,80,0.00,CLR,FEW,0.00,0.0,WeatherDisplay:10.37,2013-02-19 02:20:00,
2013-02-19 03:25:00,32.4,26.9,28.82,North,10,4.6,4.6,80,0.00,CLR,FEW,0.00,0.0,WeatherDisplay:10.37,2013-02-19 02:25:00,
2013-02-19 03:31:00,32.4,26.9,28.82,NW,305,4.6,4.6,80,0.00,CLR,FEW,0.00,0.0,WeatherDisplay:10.37,2013-02-19 02:31:00,
2013-02-19 03:36:00,32.4,26.6,28.82,NW,310,4.6,4.6,79,0.00,CLR,FEW,0.00,0.0,WeatherDisplay:10.37,2013-02-19 02:36:00,
2013-02-19 03:41:00,32.4,26.6,28.82,NW,320,4.6,5.1,79,0.00,CLR,FEW,0.00,0.0,WeatherDisplay:10.37,2013-02-19 02:41:00,
2013-02-19 03:46:00,32.4,26.9,28.82,NNW,345,1.1,1.5,80,0.00,CLR,FEW,0.00,0.0,WeatherDisplay:10.37,2013-02-19 02:46:00,
2013-02-19 03:51:00,32.4,26.6,28.82,North,10,4.6,4.6,79,0.00,CLR,FEW,0.00,0.0,WeatherDisplay:10.37,2013-02-19 02:51:00,
2013-02-19 03:56:00,32.4,26.6,28.82,NW,325,3.5,4.0,79,0.00,CLR,FEW,0.00,0.0,WeatherDisplay:10.37,2013-02-19 02:56:00,
2013-02-19 04:06:00,32.5,26.7,28.82,NNW,340,5.8,6.2,79,0.00,CLR,FEW,0.00,0.0,WeatherDisplay:10.37,2013-02-19 03:06:00,
2013-02-19 04:11:00,32.5,26.7,28.82,NNE,20,3.5,3.5,79,0.00,CLR,FEW,0.00,0.0,WeatherDisplay:10.37,2013-02-19 03:11:00,
2013-02-19 04:16:00,32.5,26.4,28.82,North,355,3.5,3.8,78,0.00,CLR,FEW,0.00,0.0,WeatherDisplay:10.37,2013-02-19 03:16:00,
2013-02-19 04:21:00,32.7,26.3,28.79,West,265,8.1,8.1,77,0.00,CLR,FEW,0.00,0.0,WeatherDisplay:10.37,2013-02-19 03:21:00,
2013-02-19 04:26:00,32.7,26.3,28.79,North,10,4.6,4.6,77,0.00,CLR,FEW,0.00,0.0,WeatherDisplay:10.37,2013-02-19 03:26:00,
2013-02-19 04:31:00,32.7,26.3,28.79,North,10,4.6,4.6,77,0.00,CLR,FEW,0.00,0.0,WeatherDisplay:10.37,2013-02-19 03:31:00,
2013-02-19 04:36:00,32.7,26.3,28.79,WNW,295,5.8,5.8,77,0.00,CLR,FEW,0.00,0.0,WeatherDisplay:10.37,2013-02-19 03:36:00,
2013-02-19 04:41:00,32.7,26.3,28.79,NNW,340,8.1,8.1,77,0.00,CLR,FEW,0.00,0.0,WeatherDisplay:10.37,2013-02-19 03:41:00,
2013-02-19 04:46:00,32.7,26.3,28.79,North,5,8.1,8.3,77,0.00,CLR,FEW,0.00,0.0,WeatherDisplay:10.37,2013-02-19 03:46:00,
2013-02-19 04:51:00,32.7,26.3,28.79,NW,315,5.8,6.0,77,0.00,CLR,FEW,0.00,0.0,WeatherDisplay:10.37,2013-02-19 03:51:00,
2013-02-19 04:56:00,32.7,26.6,28.79,NW,320,3.5,4.0,78,0.00,CLR,FEW,0.00,0.0,WeatherDisplay:10.37,2013-02-19 03:56:00,
2013-02-19 05:01:00,32.5,26.4,28.79,NW,305,3.5,3.5,78,0.00,CLR,FEW,0.00,0.0,WeatherDisplay:10.37,2013-02-19 04:01:00,
2013-02-19 05:06:00,32.5,26.4,28.79,NW,305,3.5,3.5,78,0.00,CLR,FEW,0.00,0.0,WeatherDisplay:10.37,2013-02-19 04:06:00,
2013-02-19 05:11:00,32.5,26.4,28.79,North,355,3.5,3.5,78,0.00,CLR,FEW,0.00,0.0,WeatherDisplay:10.37,2013-02-19 04:11:00,
2013-02-19 05:16:00,32.7,26.6,28.79,NNW,345,8.1,8.1,78,0.00,CLR,FEW,0.00,0.0,WeatherDisplay:10.37,2013-02-19 04:16:00,
2013-02-19 05:21:00,32.7,26.6,28.79,NNW,340,5.8,5.8,78,0.00,CLR,FEW,0.00,0.0,WeatherDisplay:10.37,2013-02-19 04:21:00,
2013-02-19 05:26:00,32.5,26.4,28.79,WNW,295,8.1,8.5,78,0.00,CLR,FEW,0.00,0.0,WeatherDisplay:10.37,2013-02-19 04:26:00,
2013-02-19 05:31:00,32.5,26.4,28.79,WNW,295,8.1,8.5,78,0.00,CLR,FEW,0.00,0.0,WeatherDisplay:10.37,2013-02-19 04:31:00,
2013-02-19 05:36:00,32.7,26.6,28.79,North,350,10.4,10.4,78,0.00,CLR,FEW,0.00,0.0,WeatherDisplay:10.37,2013-02-19 04:36:00,
2013-02-19 05:42:00,32.5,26.4,28.79,NNE,15,4.6,4.7,78,0.00,CLR,FEW,0.00,0.0,WeatherDisplay:10.37,2013-02-19 04:42:00,
2013-02-19 05:47:00,32.5,26.4,28.79,NNW,330,6.9,7.1,78,0.00,CLR,FEW,0.00,0.0,WeatherDisplay:10.37,2013-02-19 04:47:00,
2013-02-19 05:52:00,32.4,26.3,28.76,North,350,4.6,4.9,78,0.00,CLR,FEW,0.00,0.0,WeatherDisplay:10.37,2013-02-19 04:52:00,
2013-02-19 05:57:00,32.5,26.4,28.76,NNW,335,5.8,5.8,78,0.00,CLR,FEW,0.00,0.0,WeatherDisplay:10.37,2013-02-19 04:57:00,
2013-02-19 06:00:00,32.5,26.4,28.76,NNW,335,5.8,5.8,78,0.00,CLR,FEW,0.00,0.0,WeatherDisplay:10.37,2013-02-19 05:00:00,
2013-02-19 06:01:00,32.5,26.4,28.76,NNW,340,6.9,6.9,78,0.00,CLR,FEW,0.00,0.0,WeatherDisplay:10.37,2013-02-19 05:01:00,
2013-02-19 06:06:00,32.5,26.4,28.76,NNW,340,6.9,6.9,78,0.00,CLR,FEW,0.00,0.0,WeatherDisplay:10.37,2013-02-19 05:06:00,
2013-02-19 06:11:00,32.7,26.3,28.76,WNW,290,9.2,9.2,77,0.00,CLR,FEW,0.00,0.0,WeatherDisplay:10.37,2013-02-19 05:11:00,
2013-02-19 06:16:00,32.7,26.6,28.76,NNW,330,8.1,8.3,78,0.00,CLR,FEW,0.00,0.0,WeatherDisplay:10.37,2013-02-19 05:16:00,
2013-02-19 06:21:00,32.7,26.6,28.76,East,80,9.2,9.2,78,0.00,CLR,FEW,0.00,0.0,WeatherDisplay:10.37,2013-02-19 05:21:00,
2013-02-19 06:26:00,32.5,26.4,28.76,NNW,345,9.2,9.2,78,0.00,CLR,FEW,0.00,0.0,WeatherDisplay:10.37,2013-02-19 05:26:00,
2013-02-19 06:31:00,32.5,26.4,28.76,NNW,345,9.2,9.2,78,0.00,CLR,FEW,0.00,0.0,WeatherDisplay:10.37,2013-02-19 05:31:00,
2013-02-19 06:36:00,32.5,26.7,28.76,NE,55,9.2,9.2,79,0.00,CLR,FEW,0.00,0.0,WeatherDisplay:10.37,2013-02-19 05:36:00,
2013-02-19 06:41:00,32.4,26.9,28.76,WNW,300,6.9,6.9,80,0.00,CLR,FEW,0.00,0.0,WeatherDisplay:10.37,2013-02-19 05:41:00,
2013-02-19 06:47:00,32.4,26.9,28.76,North,10,8.1,8.5,80,0.00,CLR,FEW,0.00,0.0,WeatherDisplay:10.37,2013-02-19 05:47:00,
2013-02-19 06:52:00,32.2,27.0,28.76,NNW,345,9.2,9.2,81,0.00,CLR,FEW,0.00,0.0,WeatherDisplay:10.37,2013-02-19 05:52:00,
2013-02-19 06:57:00,32.0,26.8,28.76,North,355,6.9,7.3,81,0.00,CLR,FEW,0.00,0.0,WeatherDisplay:10.37,2013-02-19 05:57:00,
2013-02-19 07:02:00,32.0,27.1,28.76,NW,325,11.5,11.5,82,0.00,OVC,FEW,0.00,0.0,WeatherDisplay:10.37,2013-02-19 06:02:00,
2013-02-19 07:07:00,32.0,27.4,28.76,WNW,295,8.1,8.3,83,0.00,OVC,FEW,0.00,0.0,WeatherDisplay:10.37,2013-02-19 06:07:00,
2013-02-19 07:12:00,32.0,27.4,28.76,WNW,295,8.1,8.3,83,0.00,OVC,FEW,0.00,0.0,WeatherDisplay:10.37,2013-02-19 06:12:00,
2013-02-19 07:17:00,31.8,27.5,28.76,North,10,10.4,10.5,84,0.00,OVC,FEW,0.00,0.0,WeatherDisplay:10.37,2013-02-19 06:17:00,
2013-02-19 07:22:00,31.5,27.2,28.76,ESE,105,8.1,8.5,84,0.00,OVC,FEW,0.00,0.0,WeatherDisplay:10.37,2013-02-19 06:22:00,
2013-02-19 07:27:00,31.5,27.8,28.76,West,275,5.8,5.8,86,0.00,OVC,FEW,0.00,0.0,WeatherDisplay:10.37,2013-02-19 06:27:00,
2013-02-19 07:32:00,31.5,27.8,28.76,West,275,5.8,5.8,86,0.00,OVC,FEW,0.00,0.0,WeatherDisplay:10.37,2013-02-19 06:32:00,
2013-02-19 07:37:00,31.5,27.8,28.76,West,275,5.8,5.8,86,0.00,OVC,FEW,0.00,0.0,WeatherDisplay:10.37,2013-02-19 06:37:00,
2013-02-19 07:42:00,31.1,28.0,28.76,NNW,335,6.9,6.9,88,0.00,OVC,FEW,0.00,0.0,WeatherDisplay:10.37,2013-02-19 06:42:00,
2013-02-19 07:47:00,30.9,28.1,28.76,WNW,295,8.1,8.1,89,0.00,OVC,FEW,0.00,0.0,WeatherDisplay:10.37,2013-02-19 06:47:00,
2013-02-19 07:52:00,31.1,28.5,28.73,WNW,295,4.6,4.9,90,0.00,OVC,FEW,0.00,0.0,WeatherDisplay:10.37,2013-02-19 06:52:00,
2013-02-19 07:57:00,31.1,28.5,28.73,NW,325,5.8,6.0,90,0.00,OVC,FEW,0.00,0.0,WeatherDisplay:10.37,2013-02-19 06:57:00,
2013-02-19 08:02:00,30.9,28.6,28.73,NW,325,8.1,8.5,91,0.00,OVC,FEW,0.00,0.0,WeatherDisplay:10.37,2013-02-19 07:02:00,
2013-02-19 08:07:00,31.1,28.8,28.73,NW,320,8.1,8.1,91,0.00,OVC,FEW,0.00,0.0,WeatherDisplay:10.37,2013-02-19 07:07:00,
2013-02-19 08:12:00,31.1,28.8,28.73,NW,320,8.1,8.1,91,0.00,OVC,FEW,0.00,0.0,WeatherDisplay:10.37,2013-02-19 07:12:00,
2013-02-19 08:17:00,31.1,28.8,28.73,North,355,6.9,6.9,91,0.00,OVC,FEW,0.00,0.0,WeatherDisplay:10.37,2013-02-19 07:17:00,
2013-02-19 08:22:00,31.1,28.8,28.73,NW,310,11.5,11.7,91,0.00,OVC,FEW,0.00,0.0,WeatherDisplay:10.37,2013-02-19 07:22:00,
2013-02-19 08:27:00,31.3,29.0,28.73,NNW,330,5.8,5.8,91,0.00,OVC,FEW,0.00,0.0,WeatherDisplay:10.37,2013-02-19 07:27:00,
2013-02-19 08:32:00,31.3,29.0,28.73,NE,40,10.4,10.4,91,0.00,OVC,FEW,0.00,0.0,WeatherDisplay:10.37,2013-02-19 07:32:00,
2013-02-19 08:37:00,31.3,29.0,28.73,NE,40,10.4,10.4,91,0.00,OVC,FEW,0.00,0.0,WeatherDisplay:10.37,2013-02-19 07:37:00,
2013-02-19 08:42:00,31.1,28.8,28.73,NNW,330,6.9,6.9,91,0.00,OVC,FEW,0.00,0.0,WeatherDisplay:10.37,2013-02-19 07:42:00,
2013-02-19 08:47:00,31.3,29.0,28.73,NW,305,6.9,6.9,91,0.00,OVC,FEW,0.00,0.0,WeatherDisplay:10.37,2013-02-19 07:47:00,
2013-02-19 08:52:00,31.3,29.0,28.73,NNE,20,6.9,7.1,91,0.00,OVC,FEW,0.00,0.0,WeatherDisplay:10.37,2013-02-19 07:52:00,
2013-02-19 08:57:00,31.5,29.4,28.73,NNW,340,6.9,6.9,92,0.00,OVC,FEW,0.00,0.0,WeatherDisplay:10.37,2013-02-19 07:57:00,
2013-02-19 09:02:00,31.5,29.4,28.73,NNE,20,6.9,7.3,92,0.00,OVC,FEW,0.00,0.0,WeatherDisplay:10.37,2013-02-19 08:02:00,
2013-02-19 09:07:00,31.5,29.4,28.73,NE,40,8.1,8.5,92,0.00,OVC,FEW,0.00,0.0,WeatherDisplay:10.37,2013-02-19 08:07:00,
2013-02-19 09:12:00,31.5,29.4,28.73,NE,40,8.1,8.5,92,0.00,OVC,FEW,0.00,0.0,WeatherDisplay:10.37,2013-02-19 08:12:00,
2013-02-19 09:17:00,31.5,29.4,28.73,NNW,345,9.2,9.2,92,0.00,OVC,FEW,0.00,0.0,WeatherDisplay:10.37,2013-02-19 08:17:00,
2013-02-19 09:22:00,31.5,29.4,28.73,NW,325,8.1,8.1,92,0.00,OVC,FEW,0.00,0.0,WeatherDisplay:10.37,2013-02-19 08:22:00,
2013-02-19 09:27:00,31.5,29.4,28.73,NW,320,6.9,7.0,92,0.00,OVC,FEW,0.00,0.0,WeatherDisplay:10.37,2013-02-19 08:27:00,
2013-02-19 09:32:00,31.5,29.4,28.73,ENE,60,8.1,8.1,92,0.00,OVC,FEW,0.00,0.0,WeatherDisplay:10.37,2013-02-19 08:32:00,
2013-02-19 09:37:00,31.5,29.4,28.73,ENE,60,8.1,8.1,92,0.00,OVC,FEW,0.00,0.0,WeatherDisplay:10.37,2013-02-19 08:37:00,
2013-02-19 09:42:00,31.5,29.4,28.70,NW,325,9.2,9.4,92,0.00,OVC,FEW,0.00,0.0,WeatherDisplay:10.37,2013-02-19 08:42:00,
2013-02-19 09:47:00,31.5,29.4,28.70,NNW,345,11.5,11.7,92,0.00,OVC,FEW,0.00,0.0,WeatherDisplay:10.37,2013-02-19 08:47:00,
2013-02-19 09:52:00,31.5,29.4,28.70,NE,35,8.1,8.1,92,0.00,OVC,FEW,0.00,0.0,WeatherDisplay:10.37,2013-02-19 08:52:00,
2013-02-19 09:57:00,31.8,29.8,28.70,NW,325,9.2,9.4,92,0.00,OVC,FEW,0.00,0.0,WeatherDisplay:10.37,2013-02-19 08:57:00,
2013-02-19 10:02:00,31.8,29.8,28.70,NNE,20,9.2,9.4,92,0.00,OVC,FEW,0.00,0.0,WeatherDisplay:10.37,2013-02-19 09:02:00,
2013-02-19 10:07:00,32.0,29.9,28.70,NNW,345,11.5,11.5,92,0.00,OVC,FEW,0.00,0.0,WeatherDisplay:10.37,2013-02-19 09:07:00,
2013-02-19 10:12:00,32.0,29.9,28.70,NNW,345,11.5,11.5,92,0.00,OVC,FEW,0.00,0.0,WeatherDisplay:10.37,2013-02-19 09:12:00,
2013-02-19 10:17:00,32.0,29.9,28.70,NNE,20,5.8,6.0,92,0.00,OVC,FEW,0.00,0.0,WeatherDisplay:10.37,2013-02-19 09:17:00,
2013-02-19 10:22:00,32.2,29.8,28.70,WNW,295,9.2,9.2,91,0.00,OVC,FEW,0.00,0.0,WeatherDisplay:10.37,2013-02-19 09:22:00,
2013-02-19 10:27:00,32.0,29.7,28.70,North,350,9.2,9.2,91,0.00,OVC,FEW,0.00,0.0,WeatherDisplay:10.37,2013-02-19 09:27:00,
2013-02-19 10:32:00,32.2,29.8,28.70,East,100,8.1,8.1,91,0.00,OVC,FEW,0.00,0.0,WeatherDisplay:10.37,2013-02-19 09:32:00,
2013-02-19 10:37:00,32.2,29.8,28.70,East,100,8.1,8.1,91,0.00,OVC,FEW,0.00,0.0,WeatherDisplay:10.37,2013-02-19 09:37:00,
2013-02-19 10:42:00,32.4,30.0,28.70,NNE,25,9.2,9.6,91,0.00,OVC,FEW,0.00,0.0,WeatherDisplay:10.37,2013-02-19 09:42:00,
2013-02-19 10:47:00,32.4,30.0,28.70,NNE,25,9.2,9.6,91,0.00,OVC,FEW,0.00,0.0,WeatherDisplay:10.37,2013-02-19 09:47:00,
2013-02-19 10:53:00,32.2,29.8,28.70,North,350,6.9,7.0,91,0.00,OVC,FEW,0.00,0.0,WeatherDisplay:10.37,2013-02-19 09:53:00,
2013-02-19 10:58:00,32.2,29.8,28.70,NW,320,16.1,16.2,91,0.00,OVC,FEW,0.00,0.0,WeatherDisplay:10.37,2013-02-19 09:58:00,
2013-02-19 11:03:00,32.2,30.1,28.70,North,355,9.2,9.2,92,0.00,OVC,FEW,0.00,0.0,WeatherDisplay:10.37,2013-02-19 10:03:00,
2013-02-19 11:08:00,32.2,30.1,28.67,WNW,300,8.1,8.5,92,0.00,OVC,FEW,0.00,0.0,WeatherDisplay:10.37,2013-02-19 10:08:00,
2013-02-19 11:13:00,32.4,30.3,28.67,NNE,30,10.4,10.7,92,0.00,OVC,FEW,0.00,0.0,WeatherDisplay:10.37,2013-02-19 10:13:00,
2013-02-19 11:18:00,32.4,30.3,28.67,NNE,30,10.4,10.7,92,0.00,OVC,FEW,0.00,0.0,WeatherDisplay:10.37,2013-02-19 10:18:00,
2013-02-19 11:23:00,32.4,30.3,28.70,NNW,335,8.1,8.1,92,0.00,OVC,FEW,0.00,0.0,WeatherDisplay:10.37,2013-02-19 10:23:00,
2013-02-19 11:28:00,32.4,30.3,28.70,NNW,335,9.2,9.2,92,0.00,OVC,FEW,0.00,0.0,WeatherDisplay:10.37,2013-02-19 10:28:00,
2013-02-19 11:33:00,32.4,30.6,28.70,NW,310,8.1,8.1,93,0.00,OVC,FEW,0.00,0.0,WeatherDisplay:10.37,2013-02-19 10:33:00,
2013-02-19 11:38:00,32.4,30.6,28.70,NW,310,10.4,10.4,93,0.00,OVC,FEW,0.00,0.0,WeatherDisplay:10.37,2013-02-19 10:38:00,
2013-02-19 11:43:00,32.4,30.6,28.70,NW,310,10.4,10.4,93,0.00,OVC,FEW,0.00,0.0,WeatherDisplay:10.37,2013-02-19 10:43:00,
2013-02-19 11:48:00,32.5,30.7,28.70,ENE,60,8.1,8.1,93,0.00,OVC,FEW,0.00,0.0,WeatherDisplay:10.37,2013-02-19 10:48:00,
2013-02-19 11:53:00,32.5,30.7,28.67,NNW,335,10.4,10.4,93,0.00,OVC,FEW,0.00,0.0,WeatherDisplay:10.37,2013-02-19 10:53:00,
2013-02-19 11:58:00,32.7,30.9,28.67,North,0,11.5,11.5,93,0.00,OVC,FEW,0.00,0.0,WeatherDisplay:10.37,2013-02-19 10:58:00,
2013-02-19 12:03:00,32.7,30.7,28.67,North,10,9.2,9.4,92,0.00,OVC,FEW,0.00,0.0,WeatherDisplay:10.37,2013-02-19 11:03:00,
2013-02-19 12:08:00,32.7,30.7,28.67,North,350,8.1,8.1,92,0.00,OVC,FEW,0.00,0.0,WeatherDisplay:10.37,2013-02-19 11:08:00,
2013-02-19 12:13:00,32.7,30.9,28.67,West,280,9.2,9.8,93,0.00,OVC,FEW,0.00,0.0,WeatherDisplay:10.37,2013-02-19 11:13:00,
2013-02-19 12:18:00,32.7,30.9,28.67,West,280,9.2,9.8,93,0.00,OVC,FEW,0.00,0.0,WeatherDisplay:10.37,2013-02-19 11:18:00,
2013-02-19 12:23:00,32.7,30.9,28.67,NW,325,5.8,5.8,93,0.00,OVC,FEW,0.00,0.0,WeatherDisplay:10.37,2013-02-19 11:23:00,
2013-02-19 12:28:00,32.7,30.9,28.67,WNW,295,6.9,6.9,93,0.00,OVC,FEW,0.00,0.0,WeatherDisplay:10.37,2013-02-19 11:28:00,
2013-02-19 12:33:00,32.7,30.9,28.67,WNW,295,5.8,6.0,93,0.00,OVC,FEW,0.00,0.0,WeatherDisplay:10.37,2013-02-19 11:33:00,
2013-02-19 12:38:00,32.7,30.9,28.67,WNW,300,6.9,6.9,93,0.00,OVC,FEW,0.00,0.0,WeatherDisplay:10.37,2013-02-19 11:38:00,
2013-02-19 12:43:00,32.7,30.9,28.67,WNW,300,6.9,6.9,93,0.00,OVC,FEW,0.00,0.0,WeatherDisplay:10.37,2013-02-19 11:43:00,
2013-02-19 12:48:00,32.5,30.7,28.67,NNE,30,6.9,7.3,93,0.00,OVC,FEW,0.00,0.0,WeatherDisplay:10.37,2013-02-19 11:48:00,
2013-02-19 12:53:00,32.7,30.9,28.64,North,5,3.5,4.0,93,0.00,OVC,FEW,0.00,0.0,WeatherDisplay:10.37,2013-02-19 11:53:00,
2013-02-19 12:58:00,32.7,30.9,28.64,NNW,345,6.9,6.9,93,0.00,OVC,FEW,0.00,0.0,WeatherDisplay:10.37,2013-02-19 11:58:00,
2013-02-19 13:03:00,32.7,30.9,28.64,NW,305,6.9,6.9,93,0.00,OVC,FEW,0.00,0.0,WeatherDisplay:10.37,2013-02-19 12:03:00,
2013-02-19 13:08:00,32.7,30.9,28.67,NW,315,6.9,6.9,93,0.00,OVC,FEW,0.00,0.0,WeatherDisplay:10.37,2013-02-19 12:08:00,
2013-02-19 13:13:00,32.9,31.4,28.67,NW,305,8.1,8.5,94,0.00,OVC,FEW,0.00,0.0,WeatherDisplay:10.37,2013-02-19 12:13:00,
2013-02-19 13:18:00,32.9,31.4,28.67,NW,305,8.1,8.5,94,0.00,OVC,FEW,0.00,0.0,WeatherDisplay:10.37,2013-02-19 12:18:00,
2013-02-19 13:23:00,33.4,31.6,28.64,WNW,290,4.6,4.6,93,0.00,OVC,FEW,0.00,0.0,WeatherDisplay:10.37,2013-02-19 12:23:00,
2013-02-19 13:28:00,33.6,31.8,28.64,North,5,5.8,5.8,93,0.00,OVC,FEW,0.00,0.0,WeatherDisplay:10.37,2013-02-19 12:28:00,
2013-02-19 13:33:00,33.6,31.5,28.64,NW,315,8.1,8.3,92,0.00,OVC,FEW,0.00,0.0,WeatherDisplay:10.37,2013-02-19 12:33:00,
2013-02-19 13:38:00,33.4,31.4,28.64,WNW,295,8.1,8.5,92,0.00,OVC,FEW,0.00,0.0,WeatherDisplay:10.37,2013-02-19 12:38:00,
2013-02-19 13:43:00,33.4,31.4,28.64,WNW,295,8.1,8.5,92,0.00,OVC,FEW,0.00,0.0,WeatherDisplay:10.37,2013-02-19 12:43:00,
2013-02-19 13:48:00,33.6,31.5,28.64,NNW,335,6.9,6.9,92,0.00,OVC,FEW,0.00,0.0,WeatherDisplay:10.37,2013-02-19 12:48:00,
2013-02-19 13:53:00,33.4,31.4,28.64,NNE,15,8.1,8.3,92,0.00,OVC,FEW,0.00,0.0,WeatherDisplay:10.37,2013-02-19 12:53:00,
2013-02-19 13:58:00,33.6,31.5,28.64,North,5,8.1,8.5,92,0.00,OVC,FEW,0.00,0.0,WeatherDisplay:10.37,2013-02-19 12:58:00,
2013-02-19 14:03:00,33.6,31.5,28.64,NE,35,8.1,8.3,92,0.00,OVC,FEW,0.00,0.0,WeatherDisplay:10.37,2013-02-19 13:03:00,
2013-02-19 14:08:00,33.8,31.7,28.64,North,355,6.9,6.9,92,0.00,OVC,FEW,0.00,0.0,WeatherDisplay:10.37,2013-02-19 13:08:00,
2013-02-19 14:13:00,33.8,31.7,28.64,North,0,8.1,8.3,92,0.00,OVC,FEW,0.00,0.0,WeatherDisplay:10.37,2013-02-19 13:13:00,
2013-02-19 14:18:00,33.8,31.7,28.64,North,0,8.1,8.3,92,0.00,OVC,FEW,0.00,0.0,WeatherDisplay:10.37,2013-02-19 13:18:00,
2013-02-19 14:23:00,33.8,31.7,28.64,NW,325,6.9,7.3,92,0.00,OVC,FEW,0.00,0.0,WeatherDisplay:10.37,2013-02-19 13:23:00,
2013-02-19 14:28:00,34.0,31.9,28.64,NNW,330,5.8,5.8,92,0.00,OVC,FEW,0.00,0.0,WeatherDisplay:10.37,2013-02-19 13:28:00,
2013-02-19 14:33:00,34.0,31.9,28.64,North,350,6.9,7.0,92,0.00,OVC,FEW,0.00,0.0,WeatherDisplay:10.37,2013-02-19 13:33:00,
2013-02-19 14:38:00,33.8,31.7,28.64,NE,35,6.9,7.1,92,0.00,OVC,FEW,0.00,0.0,WeatherDisplay:10.37,2013-02-19 13:38:00,
2013-02-19 14:43:00,33.8,31.7,28.64,NE,35,6.9,7.1,92,0.00,OVC,FEW,0.00,0.0,WeatherDisplay:10.37,2013-02-19 13:43:00,
2013-02-19 14:48:00,34.2,32.1,28.64,NNW,345,4.6,4.7,92,0.00,OVC,FEW,0.00,0.0,WeatherDisplay:10.37,2013-02-19 13:48:00,
2013-02-19 14:53:00,34.0,31.9,28.64,North,0,8.1,8.3,92,0.00,OVC,FEW,0.00,0.0,WeatherDisplay:10.37,2013-02-19 13:53:00,
2013-02-19 14:58:00,34.0,31.9,28.64,North,5,4.6,4.9,92,0.00,OVC,FEW,0.00,0.0,WeatherDisplay:10.37,2013-02-19 13:58:00,
2013-02-19 15:03:00,33.8,31.7,28.64,North,350,6.9,7.3,92,0.00,OVC,FEW,0.00,0.0,WeatherDisplay:10.37,2013-02-19 14:03:00,
2013-02-19 15:08:00,33.8,31.7,28.64,NNE,25,8.1,8.1,92,0.00,OVC,FEW,0.00,0.0,WeatherDisplay:10.37,2013-02-19 14:08:00,
2013-02-19 15:13:00,33.8,32.0,28.64,WNW,295,4.6,4.7,93,0.00,OVC,FEW,0.00,0.0,WeatherDisplay:10.37,2013-02-19 14:13:00,
2013-02-19 15:18:00,33.8,32.0,28.64,WNW,295,4.6,4.7,93,0.00,OVC,FEW,0.00,0.0,WeatherDisplay:10.37,2013-02-19 14:18:00,
2013-02-19 15:23:00,33.8,32.0,28.64,North,5,4.6,4.9,93,0.00,OVC,FEW,0.00,0.0,WeatherDisplay:10.37,2013-02-19 14:23:00,
2013-02-19 15:28:00,33.8,32.0,28.64,NW,320,4.6,4.9,93,0.00,OVC,FEW,0.00,0.0,WeatherDisplay:10.37,2013-02-19 14:28:00,
2013-02-19 15:33:00,33.8,32.3,28.64,East,80,3.5,3.5,94,0.00,OVC,FEW,0.00,0.0,WeatherDisplay:10.37,2013-02-19 14:33:00,
2013-02-19 15:38:00,33.6,32.1,28.64,NNE,30,4.6,4.6,94,0.00,OVC,FEW,0.00,0.0,WeatherDisplay:10.37,2013-02-19 14:38:00,
2013-02-19 15:43:00,33.6,32.1,28.64,NNE,30,4.6,4.6,94,0.00,OVC,FEW,0.00,0.0,WeatherDisplay:10.37,2013-02-19 14:43:00,
2013-02-19 15:48:00,33.6,32.1,28.64,NNW,330,4.6,4.7,94,0.00,OVC,FEW,0.00,0.0,WeatherDisplay:10.37,2013-02-19 14:48:00,
2013-02-19 15:53:00,33.6,32.1,28.64,NNW,330,11.5,11.5,94,0.00,OVC,FEW,0.00,0.0,WeatherDisplay:10.37,2013-02-19 14:53:00,
2013-02-19 15:58:00,33.6,32.1,28.64,North,350,5.8,6.0,94,0.00,OVC,FEW,0.00,0.0,WeatherDisplay:10.37,2013-02-19 14:58:00,
2013-02-19 16:03:00,33.6,32.1,28.64,NNW,330,5.8,5.8,94,0.00,OVC,FEW,0.00,0.0,WeatherDisplay:10.37,2013-02-19 15:03:00,
2013-02-19 16:08:00,33.4,32.2,28.64,NNE,30,3.5,3.5,95,0.00,OVC,FEW,0.00,0.0,WeatherDisplay:10.37,2013-02-19 15:08:00,
2013-02-19 16:13:00,33.4,32.2,28.64,North,0,5.8,6.2,95,0.00,OVC,FEW,0.00,0.0,WeatherDisplay:10.37,2013-02-19 15:13:00,
2013-02-19 16:18:00,33.4,32.2,28.64,North,0,5.8,6.2,95,0.00,OVC,FEW,0.00,0.0,WeatherDisplay:10.37,2013-02-19 15:18:00,
2013-02-19 16:23:00,33.6,32.3,28.64,NW,325,5.8,5.8,95,0.00,OVC,FEW,0.00,0.0,WeatherDisplay:10.37,2013-02-19 15:23:00,
2013-02-19 16:28:00,33.4,32.2,28.64,NNW,335,5.8,5.8,95,0.00,OVC,FEW,0.00,0.0,WeatherDisplay:10.37,2013-02-19 15:28:00,
2013-02-19 16:33:00,33.6,32.3,28.64,NNE,25,4.6,4.6,95,0.00,OVC,FEW,0.00,0.0,WeatherDisplay:10.37,2013-02-19 15:33:00,
2013-02-19 16:38:00,33.6,32.3,28.64,NNE,25,4.6,4.6,95,0.00,OVC,FEW,0.00,0.0,WeatherDisplay:10.37,2013-02-19 15:38:00,
2013-02-19 16:43:00,33.6,32.3,28.64,NNE,25,4.6,4.6,95,0.00,OVC,FEW,0.00,0.0,WeatherDisplay:10.37,2013-02-19 15:43:00,
2013-02-19 16:48:00,33.4,32.2,28.64,NNE,25,2.3,2.4,95,0.00,OVC,FEW,0.00,0.0,WeatherDisplay:10.37,2013-02-19 15:48:00,
2013-02-19 16:53:00,33.1,31.8,28.64,NNE,30,3.5,3.5,95,0.00,OVC,FEW,0.00,0.0,WeatherDisplay:10.37,2013-02-19 15:53:00,
2013-02-19 16:58:00,33.3,32.0,28.64,NNE,25,3.5,3.5,95,0.00,OVC,FEW,0.00,0.0,WeatherDisplay:10.37,2013-02-19 15:58:00,
2013-02-19 17:03:00,33.3,32.0,28.64,NE,35,3.5,3.8,95,0.00,OVC,FEW,0.00,0.0,WeatherDisplay:10.37,2013-02-19 16:03:00,
2013-02-19 17:08:00,33.3,32.0,28.64,NNE,25,8.1,8.1,95,0.00,OVC,FEW,0.00,0.0,WeatherDisplay:10.37,2013-02-19 16:08:00,
2013-02-19 17:13:00,33.3,32.0,28.64,North,10,4.6,4.9,95,0.00,OVC,FEW,0.00,0.0,WeatherDisplay:10.37,2013-02-19 16:13:00,
2013-02-19 17:18:00,33.3,32.0,28.64,North,10,4.6,4.9,95,0.00,OVC,FEW,0.00,0.0,WeatherDisplay:10.37,2013-02-19 16:18:00,
2013-02-19 17:23:00,33.3,32.0,28.64,NNW,345,4.6,4.7,95,0.00,OVC,FEW,0.00,0.0,WeatherDisplay:10.37,2013-02-19 16:23:00,
2013-02-19 17:28:00,33.3,32.0,28.64,NNE,30,3.5,3.5,95,0.00,OVC,FEW,0.00,0.0,WeatherDisplay:10.37,2013-02-19 16:28:00,
2013-02-19 17:33:00,33.4,31.9,28.64,NE,45,4.6,4.9,94,0.00,OVC,FEW,0.00,0.0,WeatherDisplay:10.37,2013-02-19 16:33:00,
2013-02-19 17:38:00,33.4,31.9,28.64,North,355,4.6,4.7,94,0.00,OVC,FEW,0.00,0.0,WeatherDisplay:10.37,2013-02-19 16:38:00,
2013-02-19 17:43:00,33.4,31.9,28.64,North,355,4.6,4.7,94,0.00,OVC,FEW,0.00,0.0,WeatherDisplay:10.37,2013-02-19 16:43:00,
2013-02-19 17:48:00,33.6,32.1,28.64,NNW,345,6.9,6.9,94,0.00,OVC,FEW,0.00,0.0,WeatherDisplay:10.37,2013-02-19 16:48:00,
2013-02-19 17:53:00,33.6,31.8,28.67,NNE,25,3.5,4.0,93,0.00,OVC,FEW,0.00,0.0,WeatherDisplay:10.37,2013-02-19 16:53:00,
2013-02-19 17:58:00,33.6,31.8,28.67,NNE,25,3.5,3.5,93,0.00,OVC,FEW,0.00,0.0,WeatherDisplay:10.37,2013-02-19 16:58:00,
2013-02-19 18:03:00,33.6,31.8,28.67,North,5,3.5,3.5,93,0.00,CLR,FEW,0.00,0.0,WeatherDisplay:10.37,2013-02-19 17:03:00,
2013-02-19 18:08:00,33.6,31.8,28.67,North,5,3.5,3.5,93,0.00,CLR,FEW,0.00,0.0,WeatherDisplay:10.37,2013-02-19 17:08:00,
2013-02-19 18:13:00,33.6,31.3,28.67,NNW,335,11.5,11.5,91,0.00,CLR,FEW,0.00,0.0,WeatherDisplay:10.37,2013-02-19 17:13:00,
2013-02-19 18:18:00,33.6,31.3,28.67,NNW,335,11.5,11.5,91,0.00,CLR,FEW,0.00,0.0,WeatherDisplay:10.37,2013-02-19 17:18:00,
2013-02-19 18:23:00,33.4,30.8,28.67,ENE,70,9.2,9.6,90,0.00,CLR,FEW,0.00,0.0,WeatherDisplay:10.37,2013-02-19 17:23:00,
2013-02-19 18:28:00,33.3,30.6,28.67,ENE,70,5.8,5.8,90,0.00,CLR,FEW,0.00,0.0,WeatherDisplay:10.37,2013-02-19 17:28:00,
2013-02-19 18:34:00,33.3,30.6,28.67,NNW,340,3.5,3.5,90,0.00,CLR,FEW,0.00,0.0,WeatherDisplay:10.37,2013-02-19 17:34:00,
2013-02-19 18:39:00,33.1,30.5,28.67,NW,315,1.1,1.5,90,0.00,CLR,FEW,0.00,0.0,WeatherDisplay:10.37,2013-02-19 17:39:00,
2013-02-19 18:44:00,32.9,30.3,28.67,North,350,5.8,6.2,90,0.00,CLR,FEW,0.00,0.0,WeatherDisplay:10.37,2013-02-19 17:44:00,
2013-02-19 18:49:00,32.9,30.3,28.67,North,350,5.8,6.2,90,0.00,CLR,FEW,0.00,0.0,WeatherDisplay:10.37,2013-02-19 17:49:00,
2013-02-19 18:54:00,32.9,30.3,28.70,NW,315,4.6,4.6,90,0.00,CLR,FEW,0.00,0.0,WeatherDisplay:10.37,2013-02-19 17:54:00,
2013-02-19 18:59:00,32.7,30.1,28.70,North,350,4.6,4.7,90,0.00,CLR,FEW,0.00,0.0,WeatherDisplay:10.37,2013-02-19 17:59:00,
2013-02-19 19:04:00,32.7,30.1,28.70,North,5,2.3,2.3,90,0.00,CLR,FEW,0.00,0.0,WeatherDisplay:10.37,2013-02-19 18:04:00,
2013-02-19 19:09:00,32.5,29.9,28.70,NNE,25,4.6,4.6,90,0.00,CLR,FEW,0.00,0.0,WeatherDisplay:10.37,2013-02-19 18:09:00,
2013-02-19 19:14:00,32.5,29.9,28.70,NNE,25,4.6,4.6,90,0.00,CLR,FEW,0.00,0.0,WeatherDisplay:10.37,2013-02-19 18:14:00,
2013-02-19 19:19:00,32.5,29.9,28.70,NNE,25,4.6,4.6,90,0.00,CLR,FEW,0.00,0.0,WeatherDisplay:10.37,2013-02-19 18:19:00,
2013-02-19 19:24:00,32.4,29.8,28.70,ENE,70,4.6,4.6,90,0.00,CLR,FEW,0.00,0.0,WeatherDisplay:10.37,2013-02-19 18:24:00,
2013-02-19 19:29:00,32.2,29.6,28.70,West,280,4.6,4.6,90,0.00,CLR,FEW,0.00,0.0,WeatherDisplay:10.37,2013-02-19 18:29:00,
2013-02-19 19:34:00,32.2,29.6,28.70,NNE,25,5.8,5.8,90,0.00,CLR,FEW,0.00,0.0,WeatherDisplay:10.37,2013-02-19 18:34:00,
2013-02-19 19:39:00,32.0,29.4,28.70,NE,40,3.5,4.0,90,0.00,CLR,FEW,0.00,0.0,WeatherDisplay:10.37,2013-02-19 18:39:00,
2013-02-19 19:44:00,32.0,29.4,28.70,NW,310,3.5,3.5,90,0.00,CLR,FEW,0.00,0.0,WeatherDisplay:10.37,2013-02-19 18:44:00,
2013-02-19 19:49:00,32.0,29.4,28.70,NW,310,3.5,3.5,90,0.00,CLR,FEW,0.00,0.0,WeatherDisplay:10.37,2013-02-19 18:49:00,
2013-02-19 19:54:00,32.0,29.1,28.73,NNW,330,2.3,2.3,89,0.00,CLR,FEW,0.00,0.0,WeatherDisplay:10.37,2013-02-19 18:54:00,
2013-02-19 19:59:00,32.0,28.8,28.73,SE,135,5.8,5.8,88,0.00,CLR,FEW,0.00,0.0,WeatherDisplay:10.37,2013-02-19 18:59:00,
2013-02-19 20:04:00,32.0,28.8,28.73,North,5,6.9,7.3,88,0.00,CLR,FEW,0.00,0.0,WeatherDisplay:10.37,2013-02-19 19:04:00,
2013-02-19 20:09:00,32.0,28.6,28.70,NE,50,9.2,9.2,87,0.00,CLR,FEW,0.00,0.0,WeatherDisplay:10.37,2013-02-19 19:09:00,
2013-02-19 20:14:00,32.0,28.6,28.70,East,80,8.1,8.1,87,0.01,RA,FEW,0.01,0.0,WeatherDisplay:10.37,2013-02-19 19:14:00,
2013-02-19 20:19:00,32.0,28.6,28.70,East,80,8.1,8.1,87,0.01,RA,FEW,0.01,0.0,WeatherDisplay:10.37,2013-02-19 19:19:00,
2013-02-19 20:24:00,32.0,28.6,28.73,East,95,9.2,9.2,87,0.01,CLR,FEW,0.01,0.0,WeatherDisplay:10.37,2013-02-19 19:24:00,
2013-02-19 20:29:00,31.8,28.4,28.73,East,100,4.6,4.6,87,0.01,CLR,FEW,0.01,0.0,WeatherDisplay:10.37,2013-02-19 19:29:00,
2013-02-19 20:34:00,31.8,28.4,28.73,NW,325,4.6,4.7,87,0.01,CLR,FEW,0.01,0.0,WeatherDisplay:10.37,2013-02-19 19:34:00,
2013-02-19 20:39:00,31.5,28.0,28.73,SSW,205,1.1,1.5,87,0.01,CLR,FEW,0.01,0.0,WeatherDisplay:10.37,2013-02-19 19:39:00,
2013-02-19 20:44:00,31.5,27.8,28.73,SSE,150,2.3,2.4,86,0.01,CLR,FEW,0.01,0.0,WeatherDisplay:10.37,2013-02-19 19:44:00,
2013-02-19 20:49:00,31.5,27.8,28.73,SSE,150,2.3,2.4,86,0.01,CLR,FEW,0.01,0.0,WeatherDisplay:10.37,2013-02-19 19:49:00,
2013-02-19 20:54:00,31.5,27.8,28.73,NNE,15,2.3,2.3,86,0.01,CLR,FEW,0.01,0.0,WeatherDisplay:10.37,2013-02-19 19:54:00,
2013-02-19 20:59:00,31.3,27.6,28.73,NNW,340,5.8,6.0,86,0.01,CLR,FEW,0.01,0.0,WeatherDisplay:10.37,2013-02-19 19:59:00,
2013-02-19 21:04:00,31.3,27.6,28.73,NNW,340,5.8,6.0,86,0.01,CLR,FEW,0.01,0.0,WeatherDisplay:10.37,2013-02-19 20:04:00,
2013-02-19 21:09:00,31.3,27.6,28.73,NW,320,6.9,6.9,86,0.01,CLR,FEW,0.01,0.0,WeatherDisplay:10.37,2013-02-19 20:09:00,
2013-02-19 21:14:00,31.1,27.4,28.73,North,355,4.6,4.7,86,0.00,CLR,FEW,0.01,0.0,WeatherDisplay:10.37,2013-02-19 20:14:00,
2013-02-19 21:19:00,31.1,27.4,28.73,North,355,4.6,4.7,86,0.00,CLR,FEW,0.01,0.0,WeatherDisplay:10.37,2013-02-19 20:19:00,
2013-02-19 21:24:00,30.9,27.2,28.73,NNE,25,3.5,3.5,86,0.00,CLR,FEW,0.01,0.0,WeatherDisplay:10.37,2013-02-19 20:24:00,
2013-02-19 21:29:00,30.4,27.0,28.73,North,0,3.5,3.5,87,0.00,CLR,FEW,0.01,0.0,WeatherDisplay:10.37,2013-02-19 20:29:00,
2013-02-19 21:34:00,29.8,26.4,28.73,ENE,70,0.0,0.6,87,0.00,CLR,FEW,0.01,0.0,WeatherDisplay:10.37,2013-02-19 20:34:00,
2013-02-19 21:39:00,29.5,26.6,28.73,SE,135,0.0,0.0,89,0.00,CLR,FEW,0.01,0.0,WeatherDisplay:10.37,2013-02-19 20:39:00,
2013-02-19 21:44:00,29.3,26.5,28.73,SE,140,0.0,0.0,89,0.00,CLR,FEW,0.01,0.0,WeatherDisplay:10.37,2013-02-19 20:44:00,
2013-02-19 21:49:00,29.3,26.5,28.73,SE,140,0.0,0.0,89,0.00,CLR,FEW,0.01,0.0,WeatherDisplay:10.37,2013-02-19 20:49:00,
2013-02-19 21:54:00,29.5,26.6,28.76,North,350,1.1,1.1,89,0.00,CLR,FEW,0.01,0.0,WeatherDisplay:10.37,2013-02-19 20:54:00,
2013-02-19 21:59:00,29.1,26.6,28.76,North,0,0.0,0.0,90,0.00,CLR,FEW,0.01,0.0,WeatherDisplay:10.37,2013-02-19 20:59:00,
2013-02-19 22:04:00,29.1,26.6,28.76,North,0,1.1,1.1,90,0.00,CLR,FEW,0.01,0.0,WeatherDisplay:10.37,2013-02-19 21:04:00,
2013-02-19 22:09:00,29.5,26.9,28.76,NNE,15,0.0,0.0,90,0.00,CLR,FEW,0.01,0.0,WeatherDisplay:10.37,2013-02-19 21:09:00,
2013-02-19 22:14:00,29.7,27.4,28.76,North,10,0.0,0.0,91,0.00,CLR,FEW,0.01,0.0,WeatherDisplay:10.37,2013-02-19 21:14:00,
2013-02-19 22:19:00,29.7,27.4,28.76,North,10,0.0,0.0,91,0.00,CLR,FEW,0.01,0.0,WeatherDisplay:10.37,2013-02-19 21:19:00,
2013-02-19 22:24:00,29.7,27.4,28.76,NNE,20,0.0,0.0,91,0.00,CLR,FEW,0.01,0.0,WeatherDisplay:10.37,2013-02-19 21:24:00,
2013-02-19 22:29:00,29.7,27.4,28.76,NNE,20,0.0,0.0,91,0.00,CLR,FEW,0.01,0.0,WeatherDisplay:10.37,2013-02-19 21:29:00,
2013-02-19 22:34:00,29.8,27.5,28.76,NW,305,2.3,2.3,91,0.00,CLR,FEW,0.01,0.0,WeatherDisplay:10.37,2013-02-19 21:34:00,
2013-02-19 22:39:00,30.0,27.7,28.76,NNE,25,3.5,3.8,91,0.00,CLR,FEW,0.01,0.0,WeatherDisplay:10.37,2013-02-19 21:39:00,
2013-02-19 22:44:00,30.2,27.9,28.76,North,355,2.3,2.3,91,0.00,CLR,FEW,0.01,0.0,WeatherDisplay:10.37,2013-02-19 21:44:00,
2013-02-19 22:49:00,30.2,27.9,28.76,North,355,2.3,2.3,91,0.00,CLR,FEW,0.01,0.0,WeatherDisplay:10.37,2013-02-19 21:49:00,
2013-02-19 22:54:00,30.2,27.9,28.76,NNE,20,4.6,4.6,91,0.00,CLR,FEW,0.01,0.0,WeatherDisplay:10.37,2013-02-19 21:54:00,
2013-02-19 22:59:00,30.0,27.7,28.76,North,5,3.5,3.8,91,0.00,CLR,FEW,0.01,0.0,WeatherDisplay:10.37,2013-02-19 21:59:00,
2013-02-19 23:04:00,30.0,27.7,28.76,North,5,3.5,3.8,91,0.00,CLR,FEW,0.01,0.0,WeatherDisplay:10.37,2013-02-19 22:04:00,
2013-02-19 23:09:00,30.2,28.2,28.76,South,170,3.5,3.5,92,0.00,CLR,FEW,0.01,0.0,WeatherDisplay:10.37,2013-02-19 22:09:00,
2013-02-19 23:14:00,30.0,27.7,28.76,NNW,335,5.8,5.8,91,0.00,CLR,FEW,0.01,0.0,WeatherDisplay:10.37,2013-02-19 22:14:00,
2013-02-19 23:19:00,30.0,27.7,28.76,NNW,335,5.8,5.8,91,0.00,CLR,FEW,0.01,0.0,WeatherDisplay:10.37,2013-02-19 22:19:00,
2013-02-19 23:24:00,30.0,27.7,28.76,North,350,3.5,3.8,91,0.00,CLR,FEW,0.01,0.0,WeatherDisplay:10.37,2013-02-19 22:24:00,
2013-02-19 23:29:00,29.8,27.5,28.76,NNE,15,2.3,2.6,91,0.00,CLR,FEW,0.01,0.0,WeatherDisplay:10.37,2013-02-19 22:29:00,
2013-02-19 23:34:00,29.8,27.3,28.76,NNE,30,2.3,2.6,90,0.00,CLR,FEW,0.01,0.0,WeatherDisplay:10.37,2013-02-19 22:34:00,
2013-02-19 23:39:00,29.8,27.3,28.76,ENE,65,3.5,3.5,90,0.00,CLR,FEW,0.01,0.0,WeatherDisplay:10.37,2013-02-19 22:39:00,
2013-02-19 23:44:00,29.8,27.5,28.76,NNE,30,3.5,3.5,91,0.00,CLR,FEW,0.01,0.0,WeatherDisplay:10.37,2013-02-19 22:44:00,
2013-02-19 23:49:00,29.8,27.5,28.76,NNE,30,3.5,3.5,91,0.00,CLR,FEW,0.01,0.0,WeatherDisplay:10.37,2013-02-19 22:49:00,
2013-02-19 23:54:00,29.7,27.4,28.76,NE,35,4.6,4.7,91,0.00,CLR,FEW,0.01,0.0,WeatherDisplay:10.37,2013-02-19 22:54:00,
2013-02-19 23:59:00,29.7,27.4,28.76,NNW,335,3.5,3.5,91,0.00,CLR,FEW,0.01,0.0,WeatherDisplay:10.37,2013-02-19 22:59:00,